Regional Weather Roundup
Issued by NWS

Home | Current Version | Previous Version | Graphics & Text | Print | Product List | Glossary On
Versions: 1 2 3 4 5 6 7 8 9 10 11 12 13 14 15 16 17 18 19 20 21 22 23 24 25 26 27 28 29 30 31 32 33 34 35 36 37 38 39 40 41 42 43 44 45 46 47 48 49 50
000
ASUS43 KOAX 202102
RWRNE

WEATHER ROUNDUP FOR NEBRASKA
NATIONAL WEATHER SERVICE OMAHA NE
300 PM CST MON NOV 20 2017

NOTES: SATELLITE DATA IS BEING USED TO AUGMENT CLOUD COVER ABOVE
       12000 FEET.
       "FAIR" INDICATES FEW OR NO CLOUDS BELOW 12,000 FEET WITH NO
       SIGNIFICANT WEATHER AND/OR OBSTRUCTIONS TO VISIBILITY.


NEZ001>004-019>022-054>056-202200-
NEBRASKA PANHANDLE

CITY           SKY/WX    TMP DP  RH WIND       PRES   REMARKS
SCOTTSBLUFF    CLOUDY    60  14  16 NW32G43   29.73R
ALLIANCE       CLOUDY    60  18  19 NW23G33   29.68F
CHADRON        CLOUDY    60  19  20 W18G26    29.68R
GORDON         FAIR      59  14  17 W18G25    29.67R
KIMBALL        CLOUDY    62  12  14 W46G52    29.78R
SIDNEY         CLOUDY    64  15  15 NW31G41   29.75S
$$

NEZ057>060-069>072-079>082-202200-
SOUTHWEST NEBRASKA

CITY           SKY/WX    TMP DP  RH WIND       PRES   REMARKS
NORTH PLATTE   CLOUDY    65  18  16 W14       29.64S
IMPERIAL       CLOUDY    69   6   8 NW18G29   29.70S
LEXINGTON      CLOUDY    68  16  13 W14       29.62F
MCCOOK         CLOUDY    72  14  11 W16G26    29.65S
OGALLALA       CLOUDY    67  13  12 NW26G38   29.69R
$$

NEZ005>010-023>029-035>040-094-202200-
NORTH CENTRAL NEBRASKA

CITY           SKY/WX    TMP DP  RH WIND       PRES   REMARKS
VALENTINE      SUNNY     69  15  12 NW22      29.59R
AINSWORTH      CLOUDY    66  18  16 NW15      29.59R
BROKEN BOW     SUNNY     68  16  13 NW25G31   29.59F
O`NEILL        SUNNY     60  23  24 NW12      29.55R
ORD            SUNNY     66  14  13 W24G33    29.55F
THEDFORD       SUNNY     65  20  18 NW15G25   29.63R
$$

NEZ041-046>049-061>064-073>077-083>087-202200-
SOUTH CENTRAL NEBRASKA

CITY           SKY/WX    TMP DP  RH WIND       PRES   REMARKS
GRAND ISLAND   CLOUDY    64  28  25 SW15      29.61S
AURORA         CLOUDY    62  26  25 SW14      29.60S
HASTINGS       CLOUDY    62  22  21 SW9       29.62F
HEBRON         CLOUDY    57  24  28 SW15G22   29.64F
HOLDREGE       CLOUDY    68  24  19 W13G21    29.63F
KEARNEY        CLOUDY    64  23  21 W9        29.62S
YORK           CLOUDY    61  25  25 SW13G18   29.60F
$$

NEZ011>018-030>034-042>045-202200-
NORTHEAST NEBRASKA

CITY           SKY/WX    TMP DP  RH WIND       PRES   REMARKS
NORFOLK        CLOUDY    63  22  20 W12       29.54F
ALBION         MOSUNNY   66  20  17 W10       29.54F
BLAIR          CLOUDY    58  29  33 S15       29.58F
FREMONT        CLOUDY    58  27  29 S10       29.57F
TEKAMAH        CLOUDY    57  28  33 S14       29.56F
WAYNE          CLOUDY    54  23  30 SW10      29.54F
$$

NEZ050>053-065>068-078-088>093-202200-
SOUTHEAST NEBRASKA

CITY           SKY/WX    TMP DP  RH WIND       PRES   REMARKS
LINCOLN        CLOUDY    60  25  26 SW18      29.62F
OMAHA EPPLEY   CLOUDY    57  26  30 S10       29.59F
BEATRICE       CLOUDY    58  27  30 SW16G22   29.64F
FALLS CITY     CLOUDY    61  25  25 SW22G32   29.66F
NEBRASKA CITY  CLOUDY    58  29  33 SW16      29.64F
PLATTSMOUTH    CLOUDY    58  28  32 S21       29.61F
$$

NEZ044-045-051>053-067-202200-
OMAHA AREA

CITY           SKY/WX    TMP DP  RH WIND       PRES   REMARKS
OMAHA EPPLEY   CLOUDY    57  26  30 S10       29.59F
BLAIR          CLOUDY    58  29  33 S15       29.58F
FREMONT        CLOUDY    58  27  29 S10       29.57F
MILLARD        CLOUDY    60  29  31 S8        29.60F
OFFUTT AFB     CLOUDY    58  25  28 S10       29.60F
PLATTSMOUTH    CLOUDY    58  28  32 S21       29.61F
WAHOO          FAIR      60  25  26 S13G21    29.58F
$$



USA.gov is the U.S. government's official web portal to all federal, state and local government web resources and services.